User: anonymous   Login
Location: Unspecified
(0.0000°N, 0.0000°E)
Time: 01:47:04
(UTC+00:00)
Language:

Explorer 11/Cluster Stage 4 - Orbit

View from above orbital plane
View from above orbital plane
View from above satellite
View from above satellite

Ground track
Ground track

The orbit data is extracted from the following two-line orbital elements,

1 00107U 61013A   15085.48784745  .00004283  00000-0  56907-3 0  9992
2 00107 028.7910 156.4634 0556289 287.1970 194.2166 14.06595639696328
Epoch (UTC): 26 March 2015 11:42:30
Eccentricity: 0.0556289
inclination: 28.7910°
perigee height: 468 km
apogee height: 1274 km
right ascension of ascending node: 156.4634°
argument of perigee: 287.1970°
revolutions per day: 14.06595639
mean anomaly at epoch: 194.2166°
orbit number at epoch: 69632

The dashed part of the orbit path shows where the satellite is in the earth's shadow,  

DLR